Home > Weather > Edmonton > Past weeks

Flag for Canada Weather for the Past 2 Weeks in Edmonton, Alberta, Canada

Now
42 °F

Quite cool.


Feels Like: 38 °F
Forecast: 22 / 37 °F
Wind: 6 mph from Northwest

Location: Edmonton Municipal

Current Time: Feb 13, 2016 at 4:50:23 PM

Latest Report: Feb 13, 2016 at 4:00 PM


Visibility: N/A

Pressure: 29.85 "Hg (27.42 "Hg at 692m altitude)

Humidity: 61%

Dew point: 29 °F

Location of EdmontonLocation

Historic Weather in Edmonton — Graph

°F

Edmonton Temperature Yesterday

Maximum temperature yesterday: 22 °F (at 3:00 PM)
Minimum temperature yesterday: 17 °F (at 4:00 AM)
Average temperature yesterday: 19 °F

High & Low Weather Summary for the Past Weeks

 TemperatureHumidityPressure
High49 °F (Feb 9, 4:00 PM)98% (Jan 31, 8:00 AM)30.50 "Hg (Jan 31, 8:00 AM)
Low12 °F (Feb 3, 7:00 AM)32% (Feb 6, 1:00 PM)29.45 "Hg (Feb 6, 2:00 AM)
Average27 °F75%30.04 "Hg
* Reported Jan 29 3:00 PM — Feb 13 3:00 PM, Edmonton, Weather by CustomWeather, © 2016

Note: Actual official high and low records may vary slightly from our data, if they occured in-between our weather recording intervals... More about our weather records

Advertising

Edmonton Weather History for the Previous 24 Hours

 ConditionsComfort  
Time TempWeatherWind HumidityBarometerVisibility
3:00 PM
Sat, Feb 13
43 °FQuite cool.9 mph57%29.85 "HgN/A
2:00 PM43 °FQuite cool.12 mph59%29.85 "HgN/A
1:00 PM41 °FQuite cool.12 mph67%29.86 "HgN/A
12:00 PM38 °FChilly.8 mph76%29.87 "HgN/A
11:00 AM35 °FChilly.8 mph84%29.87 "HgN/A
10:00 AM30 °FChilly.5 mph97%29.88 "HgN/A
9:00 AM28 °FChilly.5 mph91%29.88 "HgN/A
8:00 AM24 °FCold.6 mph98%29.87 "HgN/A
7:00 AM23 °FCold.5 mph98%29.89 "HgN/A
6:00 AM21 °FCold.5 mph98%29.91 "HgN/A
5:00 AM20 °FCold.3 mph97%29.91 "HgN/A
4:00 AM20 °FCold.1 mph98%29.91 "HgN/A
3:00 AM20 °FCold.6 mph98%29.91 "HgN/A
2:00 AM19 °FCold.5 mph98%29.93 "HgN/A
1:00 AM19 °FCold.8 mph97%29.95 "HgN/A
12:00 AM20 °FCold.7 mph89%29.98 "HgN/A
11:00 PM
Fri, Feb 12
18 °FCold.7 mph95%30.00 "HgN/A
10:00 PM19 °FCold.9 mph93%30.02 "HgN/A
9:00 PM19 °FCold.9 mph91%30.05 "HgN/A
8:00 PM19 °FCold.8 mph91%30.07 "HgN/A
7:00 PM20 °FCold.15 mph88%30.09 "HgN/A
6:00 PM20 °FCold.10 mph92%30.12 "HgN/A
5:00 PM20 °FCold.14 mph92%30.14 "HgN/A
4:00 PM22 °FCold.13 mph85%30.17 "HgN/A
Weather by CustomWeather, © 2016

See weather overviewHow to use our weather pages